This is the latest recevied weather packets stored in our database for station/object PY2UEP-1. If no packets are shown the sender has not sent any weather packets the latest 10 day(s).
| Time | Temp. | Humidity | Pressure | Rain* | Wind** | Luminosity | Snow |
|---|---|---|---|---|---|---|---|
| 1787411461 | 22.78° C | 45% | 1022 hPa | 0 mm | - | - | - |
| 1787411161 | 22.22° C | 46% | 1022 hPa | 0 mm | - | - | - |
| 1787410861 | 21.67° C | 45% | 1022.1 hPa | 0 mm | - | - | - |
| 1787410561 | 22.22° C | 45% | 1022.1 hPa | 0 mm | - | - | - |
| 1787410261 | 22.22° C | 46% | 1022.2 hPa | 0 mm | - | - | - |
| 1787409961 | 21.67° C | 50% | 1022.3 hPa | 0 mm | - | - | - |
| 1787409661 | 21.11° C | 52% | 1022.3 hPa | 0 mm | - | - | - |
| 1787409361 | 21.11° C | 53% | 1022.4 hPa | 0 mm | - | - | - |
| 1787409061 | 21.11° C | 52% | 1022.6 hPa | 0 mm | - | - | - |
| 1787408761 | 21.11° C | 53% | 1022.7 hPa | 0 mm | - | - | - |
| 1787408461 | 20.56° C | 53% | 1022.6 hPa | 0 mm | - | - | - |
| 1787408161 | 20.56° C | 53% | 1022.7 hPa | 0 mm | - | - | - |
| 1787407861 | 20.56° C | 52% | 1022.9 hPa | 0 mm | - | - | - |
| 1787407561 | 20° C | 54% | 1023.1 hPa | 0 mm | - | - | - |
| 1787407261 | 20° C | 54% | 1023.1 hPa | 0 mm | - | - | - |
| 1787406961 | 20.56° C | 54% | 1023.1 hPa | 0 mm | - | - | - |
| 1787406661 | 20° C | 56% | 1023.1 hPa | 0 mm | - | - | - |
| 1787406361 | 20° C | 56% | 1023.2 hPa | 0 mm | - | - | - |
| 1787406061 | 20° C | 54% | 1023.2 hPa | 0 mm | - | - | - |
| 1787405761 | 20° C | 54% | 1023.3 hPa | 0 mm | - | - | - |
| 1787405461 | 20° C | 55% | 1023.3 hPa | 0 mm | - | - | - |
| 1787405161 | 19.44° C | 56% | 1023.5 hPa | 0 mm | - | - | - |
| 1787404861 | 19.44° C | 57% | 1023.5 hPa | 0 mm | - | - | - |
| 1787404261 | 19.44° C | 57% | 1023.4 hPa | 0 mm | - | - | - |
| 1787403961 | 19.44° C | 58% | 1023.3 hPa | 0 mm | - | - | - |
* Rain since midnight (hover to see other rain measurements)
** Current wind speed in m/s (hover to see current wind gust speed)